Location: Lobstick
(53.6000°N, 115.1667°W)
Time: 01:18:25
(UTC+00:00)

ITUPSAT 1 - Visible Passes

Search period start: 07 December 2023 00:00
Search period end: 17 December 2023 00:00
Orbit: 697 x 707 km, 98.5° (Epoch: 06 December)

Date Brightness Start Highest point End Pass type
(mag) Time Alt. Az. Time Alt. Az. Time Alt. Az.
07 Dec ? 14:49:52 10° ESE 14:53:31 22° NE 14:57:11 10° N visible
09 Dec ? 14:38:07 10° E 14:41:23 19° NE 14:44:38 10° N visible
11 Dec ? 14:26:29 10° E 14:29:15 15° NE 14:32:00 10° NNE visible
12 Dec ? 15:07:22 10° ESE 15:11:27 29° ENE 15:15:33 10° N visible
13 Dec ? 14:15:01 10° ENE 14:17:06 13° NE 14:19:12 10° NNE visible
14 Dec ? 14:55:29 10° ESE 14:59:15 24° ENE 15:03:03 10° N visible
15 Dec ? 14:03:59 10° ENE 14:04:59 11° NE 14:06:00 10° NNE visible
16 Dec ? 14:43:39 10° E 14:47:04 20° NE 14:50:29 10° N visible
